Location: Newark
(44.1667°N, 8.2500°E)
Time: 21:31:28
(UTC+00:00)

S-56A Canister/Altair - Pass Details

Date: 10 December 2019
Orbit: 634 x 2498 km, 38.9° (Epoch: 18 January)

Event Time Altitude Azimuth Distance (km) Brightness Sun altitude
Rises 09:52:36 0° 236° (SW) 5,720 12.1 20.0°
Reaches altitude 10° 09:56:10 10° 232° (SW) 4,878 11.9 20.3°
Maximum altitude 10:10:14 59° 159° (SSE) 2,777 11.3 21.1°
Drops below altitude 10° 10:24:14 10° 85° (E) 4,856 11.8 21.7°
Sets 10:27:46 0° 82° (E) 5,694 12.0 21.9°
